Time,TemperatureF,DewpointF,PressureIn,WindDirection,WindDirectionDegrees,WindSpeedMPH,WindSpeedGustMPH,Humidity,HourlyPrecipIn,Conditions,Clouds,dailyrainin,SoftwareType,DateUTC
2015-03-28 00:00:00,25.2,19.9,30.16,NNE,22,5.6,6.3,80,0.00,,,0.00,meteobridge,2015-03-28 04:00:00,
2015-03-28 00:05:00,24.8,19.8,30.17,North,0,6.7,8.3,81,0.00,,,0.00,meteobridge,2015-03-28 04:05:00,
2015-03-28 00:10:00,24.8,19.8,30.16,NNE,22,6.3,6.7,81,0.00,,,0.00,meteobridge,2015-03-28 04:10:00,
2015-03-28 00:16:00,24.4,19.4,30.16,NNE,22,7.2,7.2,81,0.00,,,0.00,meteobridge,2015-03-28 04:16:00,
2015-03-28 00:21:00,24.4,19.8,30.16,NNE,22,8.3,8.3,82,0.00,,,0.00,meteobridge,2015-03-28 04:21:00,
2015-03-28 00:26:00,24.3,19.6,30.16,NNE,22,3.6,4.0,82,0.00,,,0.00,meteobridge,2015-03-28 04:26:00,
2015-03-28 00:31:00,23.7,19.0,30.16,NNE,22,8.3,8.7,82,0.00,,,0.00,meteobridge,2015-03-28 04:31:00,
2015-03-28 00:36:00,23.7,18.1,30.16,NNE,22,6.3,7.8,79,0.00,,,0.00,meteobridge,2015-03-28 04:36:00,
2015-03-28 00:41:00,23.7,18.1,30.16,NE,45,8.3,8.3,79,0.00,,,0.00,meteobridge,2015-03-28 04:41:00,
2015-03-28 00:47:00,23.5,17.8,30.16,NE,45,4.7,7.2,78,0.00,,,0.00,meteobridge,2015-03-28 04:47:00,
2015-03-28 00:52:00,23.5,18.0,30.16,NNE,22,7.2,8.3,79,0.00,,,0.00,meteobridge,2015-03-28 04:52:00,
2015-03-28 00:57:00,23.5,17.4,30.16,NNE,22,9.2,10.3,77,0.00,,,0.00,meteobridge,2015-03-28 04:57:00,
2015-03-28 01:02:00,23.5,17.1,30.16,NNE,22,8.7,8.7,76,0.00,,,0.00,meteobridge,2015-03-28 05:02:00,
2015-03-28 01:07:00,23.0,16.5,30.17,NNE,22,6.3,8.3,76,0.00,,,0.00,meteobridge,2015-03-28 05:07:00,
2015-03-28 01:12:00,22.8,16.7,30.16,NNE,22,6.7,6.7,77,0.00,,,0.00,meteobridge,2015-03-28 05:12:00,
2015-03-28 01:17:00,22.6,16.9,30.16,NE,45,6.7,6.7,78,0.00,,,0.00,meteobridge,2015-03-28 05:17:00,
2015-03-28 01:23:00,22.6,17.1,30.16,NNE,22,6.3,6.3,79,0.00,,,0.00,meteobridge,2015-03-28 05:23:00,
2015-03-28 01:28:00,22.6,17.1,30.16,NNE,22,5.6,6.7,79,0.00,,,0.00,meteobridge,2015-03-28 05:28:00,
2015-03-28 01:33:00,22.5,16.9,30.16,NNE,22,7.8,7.8,79,0.00,,,0.00,meteobridge,2015-03-28 05:33:00,
2015-03-28 01:39:00,22.5,16.9,30.16,NNE,22,6.3,6.7,79,0.00,,,0.00,meteobridge,2015-03-28 05:39:00,
2015-03-28 01:44:00,22.5,16.7,30.17,NNE,22,5.6,7.2,78,0.00,,,0.00,meteobridge,2015-03-28 05:44:00,
2015-03-28 01:49:00,22.5,16.7,30.16,NNE,22,5.6,7.2,78,0.00,,,0.00,meteobridge,2015-03-28 05:49:00,
2015-03-28 01:54:00,22.1,16.3,30.16,NNE,22,5.1,5.6,78,0.00,,,0.00,meteobridge,2015-03-28 05:54:00,
2015-03-28 02:00:00,21.9,16.7,30.17,NNE,22,4.7,4.7,80,0.00,,,0.00,meteobridge,2015-03-28 06:00:00,
2015-03-28 02:05:00,21.7,16.5,30.17,NNE,22,7.2,7.2,80,0.00,,,0.00,meteobridge,2015-03-28 06:05:00,
2015-03-28 02:11:00,21.7,16.5,30.17,NNE,22,5.1,6.3,80,0.00,,,0.00,meteobridge,2015-03-28 06:11:00,
2015-03-28 02:16:00,21.7,16.5,30.17,NNE,22,5.1,6.7,80,0.00,,,0.00,meteobridge,2015-03-28 06:16:00,
2015-03-28 02:21:00,21.7,16.5,30.17,NNE,22,6.7,7.2,80,0.00,,,0.00,meteobridge,2015-03-28 06:21:00,
2015-03-28 02:26:00,21.9,16.7,30.17,NNE,22,5.6,6.3,80,0.00,,,0.00,meteobridge,2015-03-28 06:26:00,
2015-03-28 02:31:00,21.9,16.3,30.17,NNE,22,5.6,6.3,79,0.00,,,0.00,meteobridge,2015-03-28 06:31:00,
2015-03-28 02:36:00,21.9,16.3,30.18,NNW,337,5.1,6.7,79,0.00,,,0.00,meteobridge,2015-03-28 06:36:00,
2015-03-28 02:42:00,21.9,16.2,30.17,NNW,337,5.6,6.7,78,0.00,,,0.00,meteobridge,2015-03-28 06:42:00,
2015-03-28 02:47:00,21.9,16.2,30.18,NNW,337,6.3,6.3,78,0.00,,,0.00,meteobridge,2015-03-28 06:47:00,
2015-03-28 02:52:00,21.9,16.3,30.18,NNW,337,4.7,5.6,79,0.00,,,0.00,meteobridge,2015-03-28 06:52:00,
2015-03-28 02:57:00,21.7,16.2,30.17,NNW,337,4.7,5.6,79,0.00,,,0.00,meteobridge,2015-03-28 06:57:00,
2015-03-28 03:02:00,21.7,16.5,30.18,NNW,337,5.6,5.6,80,0.00,,,0.00,meteobridge,2015-03-28 07:02:00,
2015-03-28 03:07:00,21.6,16.3,30.18,NNW,337,6.3,6.3,80,0.00,,,0.00,meteobridge,2015-03-28 07:07:00,
2015-03-28 03:12:00,21.6,16.3,30.18,North,0,5.6,6.7,80,0.00,,,0.00,meteobridge,2015-03-28 07:12:00,
2015-03-28 03:17:00,21.6,16.3,30.18,NNW,337,7.2,7.2,80,0.00,,,0.00,meteobridge,2015-03-28 07:17:00,
2015-03-28 03:23:00,21.6,16.3,30.17,NNW,337,5.6,6.3,80,0.00,,,0.00,meteobridge,2015-03-28 07:23:00,
2015-03-28 03:28:00,21.2,16.0,30.18,North,0,4.7,6.3,80,0.00,,,0.00,meteobridge,2015-03-28 07:28:00,
2015-03-28 03:33:00,21.2,16.0,30.18,NNW,337,4.7,5.1,80,0.00,,,0.00,meteobridge,2015-03-28 07:33:00,
2015-03-28 03:38:00,21.0,16.2,30.18,NNW,337,4.7,4.7,81,0.00,,,0.00,meteobridge,2015-03-28 07:38:00,
2015-03-28 03:44:00,20.8,16.0,30.18,North,0,4.7,4.7,81,0.00,,,0.00,meteobridge,2015-03-28 07:44:00,
2015-03-28 03:49:00,20.8,16.2,30.18,North,0,4.7,5.6,82,0.00,,,0.00,meteobridge,2015-03-28 07:49:00,
2015-03-28 03:54:00,20.8,16.2,30.18,NNW,337,5.1,5.6,82,0.00,,,0.00,meteobridge,2015-03-28 07:54:00,
2015-03-28 03:59:00,20.8,16.2,30.18,North,0,4.7,7.2,82,0.00,,,0.00,meteobridge,2015-03-28 07:59:00,
2015-03-28 04:05:00,20.7,16.0,30.18,North,0,4.7,5.1,82,0.00,,,0.00,meteobridge,2015-03-28 08:05:00,
2015-03-28 04:10:00,20.3,15.6,30.18,North,0,5.1,6.3,82,0.00,,,0.00,meteobridge,2015-03-28 08:10:00,
2015-03-28 04:15:00,20.3,16.0,30.19,North,0,5.1,7.2,83,0.00,,,0.00,meteobridge,2015-03-28 08:15:00,
2015-03-28 04:20:00,20.3,16.0,30.18,North,0,5.6,6.3,83,0.00,,,0.00,meteobridge,2015-03-28 08:20:00,
2015-03-28 04:25:00,20.3,16.2,30.19,North,0,4.0,5.6,84,0.00,,,0.00,meteobridge,2015-03-28 08:25:00,
2015-03-28 04:30:00,20.1,16.0,30.19,North,0,4.7,5.1,84,0.00,,,0.00,meteobridge,2015-03-28 08:30:00,
2015-03-28 04:36:00,20.1,16.0,30.19,North,0,4.0,4.7,84,0.00,,,0.00,meteobridge,2015-03-28 08:36:00,
2015-03-28 04:41:00,19.9,16.2,30.19,North,0,4.7,4.7,85,0.00,,,0.00,meteobridge,2015-03-28 08:41:00,
2015-03-28 04:46:00,19.9,16.2,30.19,North,0,5.6,6.3,85,0.00,,,0.00,meteobridge,2015-03-28 08:46:00,
2015-03-28 04:52:00,19.9,16.2,30.19,NNW,337,4.7,5.6,85,0.00,,,0.00,meteobridge,2015-03-28 08:52:00,
2015-03-28 04:57:00,19.9,16.2,30.19,NNW,337,6.7,6.7,85,0.00,,,0.00,meteobridge,2015-03-28 08:57:00,
2015-03-28 05:02:00,19.9,16.5,30.19,NNW,337,4.0,4.7,86,0.00,,,0.00,meteobridge,2015-03-28 09:02:00,
2015-03-28 05:07:00,19.9,16.5,30.19,NNW,337,4.0,4.7,86,0.00,,,0.00,meteobridge,2015-03-28 09:07:00,
2015-03-28 05:12:00,19.8,16.3,30.20,NNW,337,4.0,5.1,86,0.00,,,0.00,meteobridge,2015-03-28 09:12:00,
2015-03-28 05:17:00,19.8,16.3,30.20,NNW,337,5.6,5.6,86,0.00,,,0.00,meteobridge,2015-03-28 09:17:00,
2015-03-28 05:22:00,19.8,16.3,30.20,NNW,337,4.7,5.1,86,0.00,,,0.00,meteobridge,2015-03-28 09:22:00,
2015-03-28 05:27:00,19.8,16.5,30.21,North,0,5.6,6.7,87,0.00,,,0.00,meteobridge,2015-03-28 09:27:00,
2015-03-28 05:32:00,19.8,16.5,30.21,North,0,7.2,8.3,87,0.00,,,0.00,meteobridge,2015-03-28 09:32:00,
2015-03-28 05:37:00,19.8,16.7,30.21,NNE,22,5.1,7.2,88,0.00,,,0.00,meteobridge,2015-03-28 09:37:00,
2015-03-28 05:42:00,19.8,16.7,30.21,NNE,22,7.8,8.3,88,0.00,,,0.00,meteobridge,2015-03-28 09:42:00,
2015-03-28 05:47:00,19.4,16.5,30.21,NNE,22,5.1,6.7,88,0.00,,,0.00,meteobridge,2015-03-28 09:47:00,
2015-03-28 05:52:00,19.4,16.4,30.14,NNE,22,7.3,-999.0,88,-99.99,,,0.00,Acu-Link.com,2015-03-28 09:52:00,
2015-03-28 05:57:00,19.2,16.3,30.21,NNE,22,8.3,8.3,88,0.00,,,0.00,meteobridge,2015-03-28 09:57:00,
2015-03-28 06:02:00,19.2,16.3,30.22,NNE,22,9.8,9.8,88,0.00,,,0.00,meteobridge,2015-03-28 10:02:00,
2015-03-28 06:07:00,19.2,16.2,30.14,NNE,22,6.3,-999.0,88,-99.99,,,0.00,Acu-Link.com,2015-03-28 10:07:00,
2015-03-28 06:12:00,19.0,16.2,30.22,NNE,22,6.7,8.7,88,0.00,,,0.00,meteobridge,2015-03-28 10:12:00,
2015-03-28 06:17:00,19.0,16.2,30.22,NNE,22,7.2,8.7,88,0.00,,,0.00,meteobridge,2015-03-28 10:17:00,
2015-03-28 06:22:00,18.9,15.9,30.16,NNE,22,7.8,-999.0,88,-99.99,,,0.00,Acu-Link.com,2015-03-28 10:22:00,
2015-03-28 06:28:00,19.0,16.2,30.24,NNE,22,6.3,8.3,88,0.00,,,0.00,meteobridge,2015-03-28 10:28:00,
2015-03-28 06:33:00,19.0,16.2,30.24,NNE,22,7.2,9.2,88,0.00,,,0.00,meteobridge,2015-03-28 10:33:00,
2015-03-28 06:38:00,19.0,16.2,30.24,NNE,22,6.7,6.7,88,0.00,,,0.00,meteobridge,2015-03-28 10:38:00,
2015-03-28 06:43:00,19.0,16.2,30.24,NNE,22,5.6,7.2,88,0.00,,,0.00,meteobridge,2015-03-28 10:43:00,
2015-03-28 06:48:00,18.9,16.0,30.24,NNE,22,5.1,6.7,88,0.00,,,0.00,meteobridge,2015-03-28 10:48:00,
2015-03-28 06:54:00,18.3,15.1,30.25,NNE,22,5.1,5.1,87,0.00,,,0.00,meteobridge,2015-03-28 10:54:00,
2015-03-28 06:59:00,18.3,15.1,30.25,NNE,22,4.0,5.1,87,0.00,,,0.00,meteobridge,2015-03-28 10:59:00,
2015-03-28 07:04:00,18.1,14.9,30.25,NNE,22,4.7,6.3,87,0.00,,,0.00,meteobridge,2015-03-28 11:04:00,
2015-03-28 07:09:00,18.3,15.1,30.25,NNE,22,6.3,6.7,87,0.00,,,0.00,meteobridge,2015-03-28 11:09:00,
2015-03-28 07:14:00,18.1,14.9,30.25,NNE,22,5.1,5.6,87,0.00,,,0.00,meteobridge,2015-03-28 11:14:00,
2015-03-28 07:19:00,18.3,15.1,30.26,NNE,22,7.8,7.8,87,0.00,,,0.00,meteobridge,2015-03-28 11:19:00,
2015-03-28 07:24:00,18.3,15.1,30.25,NNE,22,8.3,8.3,87,0.00,,,0.00,meteobridge,2015-03-28 11:24:00,
2015-03-28 07:30:00,18.5,15.3,30.26,NNE,22,5.1,7.8,87,0.00,,,0.00,meteobridge,2015-03-28 11:30:00,
2015-03-28 07:35:00,18.5,15.3,30.26,NNE,22,6.3,6.7,87,0.00,,,0.00,meteobridge,2015-03-28 11:35:00,
2015-03-28 07:40:00,18.5,15.6,30.27,NNE,22,6.3,7.8,88,0.00,,,0.00,meteobridge,2015-03-28 11:40:00,
2015-03-28 07:45:00,19.0,16.2,30.26,NNE,22,7.2,8.3,88,0.00,,,0.00,meteobridge,2015-03-28 11:45:00,
2015-03-28 07:50:00,19.4,16.5,30.26,NNE,22,4.0,5.6,88,0.00,,,0.00,meteobridge,2015-03-28 11:50:00,
2015-03-28 07:55:00,19.9,16.9,30.27,NE,45,7.2,7.2,88,0.00,,,0.00,meteobridge,2015-03-28 11:55:00,
2015-03-28 08:00:00,19.9,16.7,30.27,NE,45,6.3,7.8,87,0.00,,,0.00,meteobridge,2015-03-28 12:00:00,
2015-03-28 08:05:00,19.4,16.2,30.27,NE,45,5.1,8.3,87,0.00,,,0.00,meteobridge,2015-03-28 12:05:00,
2015-03-28 08:11:00,19.0,16.2,30.27,NNE,22,7.2,9.2,88,0.00,,,0.00,meteobridge,2015-03-28 12:11:00,
2015-03-28 08:16:00,19.0,16.2,30.29,NE,45,5.6,8.7,88,0.00,,,0.00,meteobridge,2015-03-28 12:16:00,
2015-03-28 08:21:00,19.0,16.2,30.29,NNE,22,7.8,8.3,88,0.00,,,0.00,meteobridge,2015-03-28 12:21:00,
2015-03-28 08:26:00,19.2,16.3,30.29,NE,45,6.3,7.2,88,0.00,,,0.00,meteobridge,2015-03-28 12:26:00,
2015-03-28 08:31:00,19.4,16.5,30.28,NNE,22,5.6,6.7,88,0.00,,,0.00,meteobridge,2015-03-28 12:31:00,
2015-03-28 08:36:00,19.8,16.5,30.29,NE,45,5.6,8.7,87,0.00,,,0.00,meteobridge,2015-03-28 12:36:00,
2015-03-28 08:42:00,20.7,17.4,30.29,NNE,22,10.7,10.7,87,0.00,,,0.00,meteobridge,2015-03-28 12:42:00,
2015-03-28 08:47:00,20.7,16.5,30.29,NE,45,8.7,9.8,84,0.00,,,0.00,meteobridge,2015-03-28 12:47:00,
2015-03-28 08:52:00,20.7,16.9,30.29,NE,45,7.8,7.8,85,0.00,,,0.00,meteobridge,2015-03-28 12:52:00,
2015-03-28 08:57:00,20.8,16.7,30.29,NE,45,6.7,10.3,84,0.00,,,0.00,meteobridge,2015-03-28 12:57:00,
2015-03-28 09:02:00,21.9,17.6,30.29,ENE,67,8.3,9.2,83,0.00,,,0.00,meteobridge,2015-03-28 13:02:00,
2015-03-28 09:07:00,21.7,16.9,30.29,ENE,67,8.7,10.7,81,0.00,,,0.00,meteobridge,2015-03-28 13:07:00,
2015-03-28 09:13:00,20.8,16.2,30.29,NE,45,7.8,11.9,82,0.00,,,0.00,meteobridge,2015-03-28 13:13:00,
2015-03-28 09:18:00,21.9,17.6,30.29,NE,45,6.3,10.3,83,0.00,,,0.00,meteobridge,2015-03-28 13:18:00,
2015-03-28 09:23:00,20.8,16.2,30.30,NE,45,7.8,8.7,82,0.00,,,0.00,meteobridge,2015-03-28 13:23:00,
2015-03-28 09:28:00,20.7,16.0,30.30,NNE,22,8.7,10.7,82,0.00,,,0.00,meteobridge,2015-03-28 13:28:00,
2015-03-28 09:33:00,20.7,15.8,30.31,NE,45,8.7,10.3,81,0.00,,,0.00,meteobridge,2015-03-28 13:33:00,
2015-03-28 09:39:00,20.8,15.6,30.32,NNE,22,10.3,13.0,80,0.00,,,0.00,meteobridge,2015-03-28 13:39:00,
2015-03-28 09:44:00,20.3,14.9,30.32,NNW,337,10.3,10.3,79,0.00,,,0.00,meteobridge,2015-03-28 13:44:00,
2015-03-28 09:50:00,19.9,14.2,30.32,NNE,22,8.7,10.7,78,0.00,,,0.00,meteobridge,2015-03-28 13:50:00,
2015-03-28 09:55:00,19.9,13.8,30.32,North,0,9.8,9.8,77,0.00,,,0.00,meteobridge,2015-03-28 13:55:00,
2015-03-28 10:00:00,19.9,13.6,30.32,North,0,9.8,11.9,76,0.00,,,0.00,meteobridge,2015-03-28 14:00:00,
2015-03-28 10:05:00,21.0,14.0,30.32,NNW,337,10.3,12.3,74,0.00,,,0.00,meteobridge,2015-03-28 14:05:00,
2015-03-28 10:10:00,22.1,14.5,30.32,North,0,7.2,10.3,72,0.00,,,0.00,meteobridge,2015-03-28 14:10:00,
2015-03-28 10:15:00,23.4,16.0,30.32,NE,45,10.3,10.7,73,0.00,,,0.00,meteobridge,2015-03-28 14:15:00,
2015-03-28 10:20:00,24.4,16.7,30.32,NNW,337,9.2,10.3,72,0.00,,,0.00,meteobridge,2015-03-28 14:20:00,
2015-03-28 10:26:00,22.6,14.7,30.32,NNE,22,8.7,11.9,71,0.00,,,0.00,meteobridge,2015-03-28 14:26:00,
2015-03-28 10:31:00,24.3,16.9,30.31,NNE,22,12.3,12.3,73,0.00,,,0.00,meteobridge,2015-03-28 14:31:00,
2015-03-28 10:36:00,23.5,15.8,30.32,NNE,22,5.6,12.3,72,0.00,,,0.00,meteobridge,2015-03-28 14:36:00,
2015-03-28 10:41:00,24.6,16.2,30.32,North,0,15.0,15.0,70,0.00,,,0.00,meteobridge,2015-03-28 14:41:00,
2015-03-28 10:46:00,24.3,15.6,30.33,NE,45,6.3,9.2,69,0.00,,,0.00,meteobridge,2015-03-28 14:46:00,
2015-03-28 10:51:00,24.8,16.2,30.32,NNE,22,10.7,14.3,69,0.00,,,0.00,meteobridge,2015-03-28 14:51:00,
2015-03-28 10:57:00,23.9,14.5,30.33,NE,45,6.7,11.4,67,0.00,,,0.00,meteobridge,2015-03-28 14:57:00,
2015-03-28 11:02:00,25.5,16.5,30.33,NNE,22,14.3,18.6,68,0.00,,,0.00,meteobridge,2015-03-28 15:02:00,
2015-03-28 11:07:00,25.3,16.5,30.32,NNW,337,11.9,13.0,69,0.00,,,0.00,meteobridge,2015-03-28 15:07:00,
2015-03-28 11:13:00,24.4,15.4,30.33,NW,315,11.4,13.4,68,0.00,,,0.00,meteobridge,2015-03-28 15:13:00,
2015-03-28 11:19:00,23.9,14.5,30.34,NNW,337,10.7,10.7,67,0.00,,,0.00,meteobridge,2015-03-28 15:19:00,
2015-03-28 11:24:00,23.9,14.9,30.34,NNE,22,8.7,9.2,68,0.00,,,0.00,meteobridge,2015-03-28 15:24:00,
2015-03-28 11:29:00,23.5,14.2,30.34,NNW,337,10.3,10.3,67,0.00,,,0.00,meteobridge,2015-03-28 15:29:00,
2015-03-28 11:34:00,25.3,16.3,30.34,NE,45,6.3,8.7,68,0.00,,,0.00,meteobridge,2015-03-28 15:34:00,
2015-03-28 11:39:00,26.1,16.3,30.34,NE,45,7.8,10.7,66,0.00,,,0.00,meteobridge,2015-03-28 15:39:00,
2015-03-28 11:45:00,25.3,16.0,30.34,NNW,337,13.9,13.9,67,0.00,,,0.00,meteobridge,2015-03-28 15:45:00,
2015-03-28 11:50:00,23.7,13.3,30.35,NNW,337,6.7,8.7,64,0.00,,,0.00,meteobridge,2015-03-28 15:50:00,
2015-03-28 11:55:00,25.3,15.6,30.33,NNE,22,15.0,15.4,66,0.00,,,0.00,meteobridge,2015-03-28 15:55:00,
2015-03-28 12:00:00,25.5,15.1,30.33,North,0,10.3,11.4,64,0.00,,,0.00,meteobridge,2015-03-28 16:00:00,
2015-03-28 12:05:00,25.7,15.6,30.34,NNE,22,9.8,13.4,65,0.00,,,0.00,meteobridge,2015-03-28 16:05:00,
2015-03-28 12:10:00,25.3,14.5,30.33,NNW,337,8.7,11.4,63,0.00,,,0.00,meteobridge,2015-03-28 16:10:00,
2015-03-28 12:16:00,24.4,14.0,30.34,NNE,22,8.7,11.4,64,0.00,,,0.00,meteobridge,2015-03-28 16:16:00,
2015-03-28 12:21:00,25.7,15.6,30.34,North,0,5.6,8.3,65,0.00,,,0.00,meteobridge,2015-03-28 16:21:00,
2015-03-28 12:26:00,27.1,16.9,30.34,NNE,22,9.2,11.9,65,0.00,,,0.00,meteobridge,2015-03-28 16:26:00,
2015-03-28 12:31:00,24.4,13.3,30.34,NNW,337,6.3,10.3,62,0.00,,,0.00,meteobridge,2015-03-28 16:31:00,